パンスターズ彗星

C/2014 W2 ( PanSTARRS )

English version
Home page
Updated on January 17, 2017

---------------------------------------------------------------------

・ プロフィール

発見日 2014年11月17日
発見光度 18.8等
発見者 Pan-STARRS 1 telescope (Haleakala)

・ 写真集

・ 軌道要素

Epoch 2016 Feb. 22.0 TT = JDT 2457440.5
T 2016 Mar. 10.48389 TT                                 MPCW
q   2.6702040            (2000.0)            P               Q
z  +0.0006236      Peri.   85.00964     -0.10047098     -0.35270768
 +/-0.0000002      Node    69.96276     -0.27384055     -0.88913825
e   0.9983348      Incl.   81.99861     +0.95651290     -0.29159983
From 2966 observations 2014 Oct. 24-2016 Oct. 15, mean residual 0".4.

・ 星図

・ 光度変化

        m1 = 4.0 + 5 logΔ + 14.0 log r

---------------------------------------------------------------------

軌道要素はM.P.E.C. 2016-U66に掲載されたものです。
星図はステラナビゲータ Ver.8 (アストロアーツ) で作成したものです。
光度グラフはComet for Windowsで作成したものです。

---------------------------------------------------------------------

Copyright(C) Seiichi Yoshida (comet@aerith.net). All rights reserved.